Jaipur, India

7:55 AM IST on April 24, 2017 (GMT +0530)
Jaipur

Weather History for VIJP - February, 2014

Change the Weather History Date:

Monday, February 3, 2014

  Actual Average Record
Temperature  
Mean Temperature 64 °F -  
Max Temperature 79 °F - - ()
Min Temperature 50 °F - - ()
Growing Degree Days 14 (Base 50)    
Moisture  
Dew Point 53 °F    
Average Humidity 71    
Maximum Humidity 94    
Minimum Humidity 34    
Precipitation  
Precipitation 0.00 in - - ()
Sea Level Pressure  
Sea Level Pressure 29.97 in    
Wind  
Wind Speed 1 mph ()    
Max Wind Speed 8 mph    
Max Gust Speed -    
Visibility 1.7 miles    
Events      
T = Trace of Precipitation, MM = Missing Value Source: Averaged Metar Reports

Daily Weather History Graph

Daily Weather History Graph

Search for Another Location

Airport or City:

Trip Planner

Search our weather history database for the weather conditions in past years. The results will help you decide how hot, cold, wet, or windy it might be!

Date:

Astronomy

Feb. 03, 2014 Rise Set
Actual Time 7:11 AM IST 6:10 PM IST
Civil Twilight 6:47 AM IST 6:34 PM IST
Nautical Twilight 6:19 AM IST 7:02 PM IST
Astronomical Twilight 5:51 AM IST 7:29 PM IST
Moon 9:22 AM IST (2/3) 10:01 PM IST (2/3)
Length of Visible Light 11h 47m
Length of Day
10h 58m
Waxing Crescent, 16% of the Moon is Illuminated
Feb 3
Waxing Crescent
Feb 7
First Quarter
Feb 15
Full
Feb 22
Last Quarter
Mar 1
New

Hourly Weather History & Observations

Time (IST) Temp. Dew Point Humidity Pressure Visibility Wind Dir Wind Speed Gust Speed Precip Events Conditions
12:00 AM 57.2 °F 53.6 °F 88% 30.01 in 0.9 mi Calm Calm - N/A   Scattered Clouds
1:00 AM 55.4 °F 51.8 °F 88% 30.01 in 0.9 mi Calm Calm - N/A   Scattered Clouds
2:00 AM 55.4 °F 51.8 °F 88% 29.98 in 0.9 mi Calm Calm - N/A   Scattered Clouds
2:30 AM 55 °F 51 °F 83% 29.98 in 1 mi Calm Calm - -   Mist
3:00 AM 53.6 °F 51.8 °F 94% 29.98 in 0.9 mi Calm Calm - N/A   Scattered Clouds
4:00 AM 55.4 °F 53.6 °F 94% 29.98 in 0.9 mi Calm Calm - N/A   Scattered Clouds
5:00 AM 53.6 °F 51.8 °F 94% 29.98 in 0.9 mi Calm Calm - N/A   Scattered Clouds
5:30 AM 53 °F 51 °F 91% 29.96 in 1 mi Calm Calm - -   Mist
6:00 AM 53.6 °F 51.8 °F 94% 29.98 in 0.9 mi Calm Calm - N/A   Scattered Clouds
7:00 AM 51.8 °F 50.0 °F 94% 30.01 in 0.9 mi Calm Calm - N/A   Scattered Clouds
8:00 AM 55.4 °F 53.6 °F 94% 30.01 in 0.9 mi Variable 1.2 mph - N/A   Scattered Clouds
8:30 AM 57 °F 55 °F 92% 30.01 in 1 mi East 2.3 mph - -   Mist
9:00 AM 62.6 °F 53.6 °F 72% 30.04 in 1.2 mi ESE 4.6 mph - N/A   Haze
11:00 AM 68.0 °F 51.8 °F 56% 30.04 in 2.5 mi SSE 6.9 mph - N/A   Haze
11:30 AM 72 °F 50 °F 34% 29.99 in 2 mi SW 2.3 mph - -   Haze
12:00 PM 71.6 °F 50.0 °F 46% 30.04 in 2.5 mi South 5.8 mph - N/A   Haze
2:00 PM 75.2 °F 51.8 °F 44% 29.95 in 3.1 mi SSW 8.1 mph - N/A   Haze
3:00 PM 77.0 °F 51.8 °F 41% 29.92 in 3.1 mi SSW 6.9 mph - N/A   Haze
4:00 PM 77.0 °F 51.8 °F 41% 29.92 in 3.1 mi SSW 6.9 mph - N/A   Haze
5:00 PM 75.2 °F 53.6 °F 47% 29.92 in 3.1 mi SW 5.8 mph - N/A   Haze
5:30 PM 75 °F 53 °F 36% 29.87 in 2 mi SSW 4.6 mph - -   Haze
6:00 PM 73.4 °F 53.6 °F 50% 29.92 in 3.1 mi South 3.5 mph - N/A   Haze
8:00 PM 68.0 °F 57.2 °F 68% 29.95 in 1.9 mi Calm Calm - N/A   Haze
8:30 PM 69 °F 57 °F 57% 29.91 in 1 mi Calm Calm - -   Haze
9:00 PM 68.0 °F 57.2 °F 68% 29.95 in 1.9 mi Calm Calm - N/A   Haze
10:00 PM 66.2 °F 59.0 °F 78% 29.95 in 1.9 mi Calm Calm - N/A   Scattered Clouds
11:00 PM 66.2 °F 57.2 °F 73% 29.95 in 1.9 mi Calm Calm - N/A   Scattered Clouds
11:30 PM 65 °F 58 °F 73% 29.91 in 1 mi Calm Calm - -   Mist